EW2964 Weather Reports


Display with metric or nautical units.
time (UTC)temp
F
wind
direction
speed
MPH
gust
MPH
rain 1hr
in
rain 24hr
in
rain mn
in
humidity
%
barometer
mb
20260502205007 47 287 9.0 17.0 0.00 0.01 0.00 44 1013.5
20260502204521 47 320 7.0 16.0 0.00 0.01 0.00 47 1013.4
20260502204006 47 11 6.0 16.0 0.00 0.01 0.00 47 1013.4
20260502203511 47 328 8.0 14.0 0.00 0.01 0.00 46 1013.5
20260502203025 47 311 6.0 16.0 0.00 0.01 0.00 47 1013.5
20260502202510 47 340 8.0 16.0 0.00 0.01 0.00 44 1013.5
20260502202009 47 315 6.0 13.0 0.00 0.01 0.00 47 1013.6
20260502201529 47 321 8.0 13.0 0.00 0.01 0.00 46 1013.7
20260502201011 47 5 7.0 14.0 0.00 0.01 0.00 47 1013.7
20260502200506 47 320 8.0 16.0 0.00 0.01 0.00 48 1013.7
20260502200016 47 303 9.0 16.0 0.00 0.01 0.00 47 1013.8
20260502195504 47 325 8.0 14.0 0.00 0.01 0.00 46 1013.8
20260502195008 47 317 8.0 14.0 0.00 0.01 0.00 47 1013.8
20260502194529 47 321 8.0 13.0 0.00 0.01 0.00 45 1013.9
20260502194007 47 286 5.0 10.0 0.00 0.01 0.00 45 1013.8
20260502193507 47 294 4.0 14.0 0.00 0.01 0.00 48 1014.0
20260502193022 47 286 7.0 14.0 0.00 0.01 0.00 47 1014.0
20260502192511 47 338 4.0 15.0 0.00 0.01 0.00 47 1014.1
20260502192009 47 304 7.0 15.0 0.00 0.01 0.00 46 1014.0
20260502191529 47 277 6.0 15.0 0.00 0.01 0.00 47 1014.1
20260502191010 47 319 7.0 15.0 0.00 0.01 0.00 47 1014.0
20260502190508 47 336 3.0 13.0 0.00 0.01 0.00 47 1014.0
20260502190030 47 304 6.0 13.0 0.00 0.01 0.00 48 1014.1
20260502185502 47 298 1.0 9.0 0.00 0.01 0.00 47 1014.2
20260502185002 47 304 3.0 16.0 0.00 0.01 0.00 49 1014.3
20260502184503 47 334 6.0 16.0 0.00 0.01 0.00 49 1014.5
20260502184005 47 265 10.0 16.0 0.00 0.01 0.00 48 1014.4
20260502183503 47 319 5.0 11.0 0.00 0.01 0.00 48 1014.3
20260502183004 47 360 3.0 13.0 0.00 0.01 0.00 49 1014.4
20260502182502 46 317 4.0 14.0 0.00 0.01 0.00 48 1014.4
20260502182002 46 311 10.0 16.0 0.00 0.01 0.00 48 1014.5
20260502181506 47 340 6.0 16.0 0.00 0.01 0.00 48 1014.6
20260502181002 48 286 4.0 12.0 0.00 0.01 0.00 50 1014.6
20260502180505 47 298 7.0 12.0 0.00 0.01 0.00 50 1014.6
20260502170503 45 336 4.0 17.0 0.00 0.01 0.00 54 1014.9
20260502164008 45 321 6.0 14.0 0.00 0.01 0.00 52 1015.0
20260502163505 45 307 4.0 15.0 0.00 0.01 0.00 54 1015.0
20260502163023 45 317 8.0 19.0 0.00 0.01 0.00 54 1015.1
20260502162505 45 271 7.0 19.0 0.00 0.01 0.00 53 1014.9
20260502162004 45 298 4.0 13.0 0.00 0.01 0.00 55 1015.0
20260502161505 45 14 6.0 16.0 0.00 0.01 0.00 54 1015.0
20260502161003 45 315 6.0 16.0 0.00 0.01 0.00 55 1015.0
20260502160503 44 296 4.0 15.0 0.00 0.01 0.00 54 1015.0
20260502152005 44 315 4.0 12.0 0.00 0.01 0.00 56 1015.2
20260502151528 44 301 5.0 12.0 0.00 0.01 0.00 55 1015.2
20260502151003 44 317 3.0 13.0 0.00 0.01 0.00 56 1015.3
20260502150503 45 325 7.0 13.0 0.00 0.01 0.00 60 1015.4
20260502130508 42 11 3.0 7.0 0.00 0.01 0.00 69 1015.1
20260502123508 39 277 2.0 5.0 0.00 0.01 0.00 78 1015.2
20260502123017 39 315 1.0 4.0 0.00 0.01 0.00 84 1015.4
20260502122506 38 144 2.0 5.0 0.00 0.01 0.00 85 1015.4
20260502122006 38 150 1.0 5.0 0.00 0.01 0.00 86 1015.4
20260502121510 37 150 2.0 4.0 0.00 0.01 0.00 88 1015.4
20260502121003 37 135 0.0 5.0 0.00 0.01 0.00 89 1015.3
20260502120506 37 142 2.0 5.0 0.00 0.01 0.00 89 1015.2
20260502115506 37 141 2.0 5.0 0.00 0.01 0.00 90 1015.2
20260502115009 37 160 2.0 5.0 0.00 0.01 0.00 90 1015.2
20260502114520 36 135 1.0 3.0 0.00 0.01 0.00 91 1015.3
20260502114009 36 141 2.0 3.0 0.00 0.01 0.00 91 1015.3
20260502113512 36 125 1.0 3.0 0.00 0.01 0.00 92 1015.4
20260502113022 35 147 1.0 4.0 0.00 0.01 0.00 93 1015.3
20260502112508 35 156 1.0 4.0 0.00 0.01 0.00 93 1015.2
20260502112010 35 165 0.0 2.0 0.00 0.01 0.00 94 1015.3
20260502111527 35 179 0.0 0.0 0.00 0.01 0.00 94 1015.3
20260502111003 35 179 0.0 0.0 0.00 0.01 0.00 93 1015.3
20260502110506 35 179 0.0 0.0 0.00 0.01 0.00 93 1015.2
20260502110018 35 179 0.0 0.0 0.00 0.01 0.00 93 1015.2
20260502105507 35 179 0.0 0.0 0.00 0.01 0.00 93 1015.4
20260502105006 35 179 0.0 0.0 0.00 0.01 0.00 93 1015.4
20260502104516 35 179 0.0 0.0 0.00 0.01 0.00 93 1015.4
20260502104005 35 179 0.0 2.0 0.00 0.01 0.00 92 1015.4
20260502103505 35 179 0.0 2.0 0.00 0.01 0.00 92 1015.3
20260502103021 35 179 0.0 0.0 0.00 0.01 0.00 92 1015.3
20260502102509 35 179 0.0 1.0 0.00 0.01 0.00 91 1015.4
20260502102009 35 179 0.0 2.0 0.00 0.01 0.00 92 1015.4
20260502101524 35 179 0.0 2.0 0.00 0.01 0.00 91 1015.4
20260502101006 35 179 0.0 3.0 0.00 0.01 0.00 91 1015.4
20260502100506 35 178 2.0 3.0 0.00 0.01 0.00 92 1015.4
20260502091504 36 240 0.0 2.0 0.00 0.01 0.00 89 1015.4
20260502091005 36 240 1.0 2.0 0.00 0.01 0.00 89 1015.4
20260502090503 36 256 1.0 7.0 0.00 0.01 0.00 88 1015.3
20260502071504 39 313 2.0 5.0 0.00 0.01 0.00 84 1015.1
20260502071003 39 331 2.0 8.0 0.00 0.01 0.00 83 1015.0
20260502070504 39 318 4.0 8.0 0.00 0.01 0.00 83 1015.2
20260502070007 39 278 1.0 4.0 0.00 0.01 0.00 86 1015.2
20260502065503 39 301 1.0 8.0 0.00 0.01 0.00 85 1015.2
20260502065003 39 317 3.0 8.0 0.00 0.01 0.00 84 1015.2
20260502064506 39 307 1.0 4.0 0.00 0.01 0.00 84 1015.2
20260502064005 40 307 2.0 5.0 0.00 0.01 0.00 84 1015.3
20260502063503 40 309 2.0 8.0 0.00 0.01 0.00 84 1015.2
20260502063008 40 308 4.0 8.0 0.00 0.01 0.00 84 1015.3
20260502062505 40 300 2.0 5.0 0.00 0.01 0.00 84 1015.2
20260502062006 40 322 2.0 5.0 0.00 0.01 0.00 83 1015.2
20260502061514 40 333 2.0 5.0 0.00 0.01 0.00 82 1015.4
20260502061003 40 299 2.0 4.0 0.00 0.01 0.00 82 1015.4
20260502060503 41 309 1.0 5.0 0.00 0.01 0.00 82 1015.4
20260502060009 41 311 3.0 5.0 0.00 0.01 0.00 82 1015.4
20260502055504 41 323 2.0 7.0 0.00 0.01 0.00 81 1015.4
20260502055004 41 324 4.0 7.0 0.00 0.01 0.00 81 1015.4
20260502054509 41 298 2.0 9.0 0.00 0.01 0.00 82 1015.5
20260502054007 41 321 5.0 9.0 0.00 0.01 0.00 81 1015.5
20260502053503 41 306 5.0 9.0 0.00 0.01 0.00 81 1015.6
20260502053006 41 279 3.0 9.0 0.00 0.01 0.00 80 1015.6
20260502052503 41 292 2.0 9.0 0.00 0.01 0.00 80 1015.6
20260502052007 42 314 3.0 9.0 0.00 0.01 0.00 80 1015.7
20260502051521 42 332 6.0 9.0 0.00 0.01 0.00 80 1015.7
20260502051002 42 40 5.0 9.0 0.00 0.01 0.00 80 1015.6
20260502050503 42 302 4.0 10.0 0.00 0.01 0.00 79 1015.6
20260502050014 42 275 3.0 10.0 0.00 0.01 0.00 79 1015.7
20260502045506 42 263 5.0 10.0 0.00 0.01 0.00 79 1015.8
20260502045004 42 311 4.0 9.0 0.00 0.01 0.00 80 1015.7
20260502044512 42 316 4.0 8.0 0.00 0.01 0.00 80 1015.8
20260502044003 42 311 5.0 8.0 0.00 0.01 0.00 79 1015.8
20260502043504 42 319 1.0 8.0 0.00 0.01 0.00 78 1015.8
20260502043019 42 315 2.0 8.0 0.00 0.01 0.00 78 1015.7
20260502042507 42 300 2.0 9.0 0.00 0.01 0.00 78 1015.8
20260502042011 42 312 3.0 13.0 0.00 0.01 0.00 77 1015.7
20260502041518 43 315 7.0 13.0 0.00 0.01 0.00 76 1015.6
20260502041003 43 325 5.0 13.0 0.00 0.01 0.00 76 1015.6
20260502040504 43 333 5.0 12.0 0.00 0.01 0.00 77 1015.6
20260502040015 43 323 7.0 16.0 0.00 0.01 0.00 79 1015.7
20260502035507 43 333 6.0 16.0 0.00 0.01 0.01 79 1015.8
20260502035010 43 307 8.0 14.0 0.00 0.01 0.01 80 1015.7
20260502034516 43 347 5.0 13.0 0.00 0.01 0.01 82 1015.7
20260502034004 43 300 8.0 16.0 0.00 0.01 0.01 81 1015.6
20260502033505 44 322 10.0 16.0 0.00 0.01 0.01 81 1015.5
20260502033024 44 299 6.0 15.0 0.00 0.01 0.01 84 1015.4
20260502032504 44 292 5.0 15.0 0.00 0.01 0.01 83 1015.4
20260502032006 45 339 2.0 8.0 0.00 0.01 0.01 85 1015.2
20260502031516 45 309 1.0 4.0 0.00 0.01 0.01 84 1015.1
20260502031008 45 292 0.0 2.0 0.00 0.01 0.01 87 1015.1
20260502030508 45 290 0.0 3.0 0.00 0.01 0.01 86 1015.2
20260502030020 45 294 0.0 3.0 0.00 0.01 0.01 83 1015.3
20260502025503 45 282 0.0 4.0 0.00 0.01 0.01 85 1015.2
20260502025003 45 170 1.0 4.0 0.00 0.02 0.01 85 1015.4
20260502024520 45 236 0.0 3.0 0.00 0.02 0.01 86 1015.3
20260502024008 45 236 1.0 3.0 0.00 0.02 0.01 85 1015.2
20260502023506 45 263 1.0 3.0 0.00 0.02 0.01 85 1015.1
20260502023019 45 327 0.0 6.0 0.00 0.02 0.01 85 1015.0
20260502022508 45 344 1.0 6.0 0.00 0.02 0.01 84 1014.9
20260502022008 45 341 1.0 3.0 0.00 0.02 0.01 82 1014.9
20260502021519 45 234 2.0 3.0 0.00 0.02 0.01 82 1015.0
20260502021001 45 211 0.0 3.0 0.00 0.02 0.01 83 1015.0
20260502020506 45 281 0.0 4.0 0.00 0.02 0.01 83 1015.0
20260502020010 45 227 1.0 4.0 0.00 0.02 0.01 83 1015.1
20260502015506 45 147 1.0 4.0 0.00 0.02 0.01 80 1015.1
20260502015003 45 340 0.0 3.0 0.00 0.02 0.01 82 1015.1
20260502014512 45 340 0.0 3.0 0.00 0.03 0.01 82 1015.2
20260502014003 45 285 0.0 5.0 0.00 0.03 0.01 82 1015.1
20260502013504 45 325 2.0 5.0 0.00 0.03 0.01 81 1015.1
20260502013021 45 215 1.0 8.0 0.00 0.03 0.01 81 1014.9
20260502012507 45 263 3.0 9.0 0.00 0.03 0.01 81 1014.9
20260502012009 45 313 4.0 10.0 0.00 0.03 0.01 80 1014.9
20260502011528 45 317 3.0 10.0 0.00 0.03 0.01 80 1014.9
20260502011006 46 298 3.0 12.0 0.01 0.03 0.01 80 1014.6
20260502010506 46 298 5.0 12.0 0.01 0.03 0.01 79 1014.7
20260502010022 46 321 4.0 11.0 0.01 0.03 0.01 80 1014.6
20260502005508 46 314 6.0 11.0 0.01 0.03 0.01 80 1014.6
20260502005007 46 317 7.0 13.0 0.01 0.03 0.01 79 1014.5
20260502004510 46 301 5.0 15.0 0.01 0.03 0.01 80 1014.3
20260502004007 46 284 8.0 15.0 0.01 0.03 0.01 79 1014.3
20260502003505 47 311 7.0 15.0 0.01 0.03 0.01 79 1014.2
20260502003020 47 339 8.0 14.0 0.01 0.03 0.01 81 1014.1
20260502002507 47 322 10.0 14.0 0.01 0.03 0.01 81 1013.9
20260502002011 47 313 4.0 11.0 0.01 0.03 0.01 82 1013.6
20260502001522 48 302 6.0 11.0 0.01 0.03 0.01 82 1013.5
20260502001006 48 319 8.0 14.0 0.00 0.02 0.00 80 1013.5
20260502000508 48 301 6.0 14.0 0.00 0.02 0.00 80 1013.2
20260502000025 48 344 5.0 13.0 0.00 0.02 0.00 80 1012.9
20260501235506 49 10 7.0 13.0 0.00 0.02 0.00 80 1012.9
20260501235007 49 325 5.0 13.0 0.00 0.02 0.00 78 1012.7
20260501234526 50 336 8.0 13.0 0.00 0.02 0.00 75 1012.8
20260501234007 50 311 8.0 17.0 0.00 0.02 0.00 74 1012.7
20260501233509 50 313 10.0 17.0 0.00 0.02 0.00 73 1012.4
20260501233010 50 315 6.0 16.0 0.00 0.02 0.00 73 1012.4
20260501232507 51 324 10.0 16.0 0.00 0.02 0.00 71 1012.4
20260501232007 51 348 10.0 18.0 0.00 0.03 0.00 70 1012.3
20260501231516 51 319 10.0 21.0 0.00 0.03 0.00 69 1012.3
20260501231007 51 315 13.0 21.0 0.00 0.03 0.00 67 1012.2
20260501230509 52 323 7.0 20.0 0.00 0.04 0.00 66 1012.2
20260501230020 52 343 7.0 20.0 0.00 0.06 0.00 64 1012.0
20260501225509 52 342 9.0 17.0 0.00 0.06 0.00 63 1012.0
20260501225010 53 13 11.0 19.0 0.00 0.06 0.00 62 1011.9
20260501224525 53 21 10.0 19.0 0.00 0.07 0.00 61 1011.8
20260501224008 53 343 13.0 21.0 0.00 0.07 0.00 60 1011.9
20260501223506 54 352 12.0 21.0 0.00 0.07 0.00 58 1011.9
20260501223026 54 329 14.0 21.0 0.00 0.07 0.00 57 1011.9
20260501222510 55 322 10.0 23.0 0.00 0.07 0.00 55 1011.9
20260501222010 55 318 14.0 23.0 0.00 0.07 0.00 53 1011.7
20260501221518 56 333 11.0 21.0 0.00 0.07 0.00 52 1011.6
20260501221006 56 327 7.0 22.0 0.00 0.08 0.00 50 1011.4
20260501220508 57 333 13.0 22.0 0.00 0.10 0.00 46 1011.2
20260501220017 58 319 9.0 18.0 0.00 0.10 0.00 42 1011.1
20260501215507 58 318 9.0 17.0 0.00 0.10 0.00 41 1011.1
20260501215006 58 260 7.0 17.0 0.00 0.10 0.00 42 1011.2
20260501214523 58 327 10.0 17.0 0.00 0.10 0.00 41 1011.1
20260501214007 58 329 8.0 19.0 0.00 0.10 0.00 40 1010.9
20260501213508 58 49 10.0 19.0 0.00 0.10 0.00 39 1010.9
20260501213025 58 348 9.0 24.0 0.00 0.10 0.00 39 1010.8
20260501212509 59 311 9.0 25.0 0.00 0.10 0.00 37 1010.8
20260501212011 59 360 13.0 25.0 0.00 0.10 0.00 36 1010.8
20260501211531 59 305 14.0 25.0 0.00 0.10 0.00 36 1010.6
20260501211007 60 326 13.0 21.0 0.00 0.10 0.00 36 1010.6
20260501210509 60 323 12.0 21.0 0.00 0.10 0.00 34 1010.4
20260501210026 61 329 13.0 19.0 0.00 0.10 0.00 33 1010.2
20260501205506 61 283 7.0 16.0 0.00 0.10 0.00 33 1010.1